Home > Weather > Kingston > Past weeks

Flag for Norfolk Island Weather for the Past 2 Weeks in Kingston, Norfolk Island

Now
75 °F

Partly sunny.


Feels Like: 75 °F
Forecast: 70 / 79 °F
Wind: 14 mph from Southeast

Location: Norfolk Island Airport

Current Time: Feb 10, 2016 at 10:01:29 AM

Latest Report: Feb 10, 2016 at 8:30 AM


Visibility: N/A

Pressure: 29.71 "Hg

Humidity: 83%

Dew point: 70 °F

Location of KingstonLocation

Historic Weather in Kingston — Graph

°F

Kingston Temperature Yesterday

Maximum temperature yesterday: 79 °F (at 12:00 PM)
Minimum temperature yesterday: 70 °F (at 11:00 PM)
Average temperature yesterday: 75 °F

High & Low Weather Summary for the Past Weeks

 TemperatureHumidityPressure
High82 °F (Feb 1, 12:00 PM)100% (Jan 29, 3:30 AM)30.01 "Hg (Jan 29, 3:30 AM)
Low68 °F (Jan 27, 8:30 PM)61% (Jan 27, 5:00 PM)29.56 "Hg (Feb 4, 12:00 PM)
Average74 °F85%29.80 "Hg
* Reported Jan 26 8:00 AM — Feb 10 8:00 AM, Kingston, Weather by CustomWeather, © 2016

Note: Actual official high and low records may vary slightly from our data, if they occured in-between our weather recording intervals... More about our weather records

Advertising

Kingston Weather History for the Previous 24 Hours

 ConditionsComfort  
Time TempWeatherWind HumidityBarometerVisibility
8:00 AM
Wed, Feb 10
73 °FPartly sunny.10 mph89%29.71 "HgN/A
7:00 AM73 °FPartly sunny.12 mph89%29.68 "HgN/A
6:00 AM72 °FScattered clouds.8 mph94%29.68 "HgN/A
5:00 AM72 °FCloudy.8 mph94%29.65 "HgN/A
4:57 AM72 °FBroken clouds.8 mph94%29.65 "HgN/A
4:00 AM72 °FPassing clouds.5 mph88%29.65 "HgN/A
3:00 AM70 °FPassing clouds.No wind94%29.65 "HgN/A
2:30 AM70 °FClear.No wind94%29.65 "HgN/A
2:00 AM70 °FClear.3 mph94%29.65 "HgN/A
1:00 AM70 °FClear.No wind100%29.65 "Hg6 mi
12:30 AM72 °FPassing clouds.No wind94%29.65 "Hg6 mi
12:00 AM70 °FPassing clouds.No wind94%29.65 "HgN/A
11:30 PM
Tue, Feb 9
70 °FClear.No wind94%29.68 "HgN/A
11:00 PM70 °FClear.No wind94%29.68 "HgN/A
10:00 PM72 °FClear.No wind88%29.68 "HgN/A
9:00 PM72 °FClear.5 mph88%29.68 "HgN/A
8:30 PM73 °FPassing clouds.6 mph89%29.68 "HgN/A
8:00 PM73 °FPassing clouds.5 mph89%29.65 "HgN/A
7:00 PM73 °FClear.6 mph83%29.65 "HgN/A
6:00 PM75 °FPassing clouds.8 mph78%29.62 "HgN/A
5:30 PM77 °FPassing clouds.9 mph74%29.59 "HgN/A
5:00 PM75 °FScattered clouds.10 mph78%29.59 "HgN/A
4:00 PM77 °FScattered clouds.13 mph74%29.59 "HgN/A
3:30 PM77 °FScattered clouds.12 mph74%29.59 "HgN/A
3:00 PM79 °FScattered clouds.12 mph70%29.59 "HgN/A
2:30 PM79 °FPassing clouds.14 mph74%29.59 "HgN/A
2:00 PM79 °FScattered clouds.14 mph70%29.62 "HgN/A
1:00 PM79 °FPartly sunny.12 mph79%29.62 "HgN/A
12:30 PM79 °FPartly sunny.15 mph74%29.62 "HgN/A
12:00 PM79 °FScattered clouds.15 mph74%29.62 "HgN/A
11:00 AM77 °FPassing clouds.13 mph79%29.62 "HgN/A
10:30 AM77 °FScattered clouds.15 mph79%29.62 "HgN/A
10:00 AM77 °FScattered clouds.14 mph79%29.62 "HgN/A
Weather by CustomWeather, © 2016

See weather overviewHow to use our weather pages